N804QS KBOI-KBFI

Flight info

Callsign N804QS
Flight time 1h 10m
Altitude 43000
Route OLAAH PREIS OKINY PDT CHINS5
Aircraft C700/M-SBDGHM1RWXY/LB2

Departure

Time 2026-04-27 00:57
Airport Boise Air Terminal/Gowen Field (KBOI)

Arrival

Time 2026-04-27 02:08
Airport King County International Airport - Boeing Field (KBFI)
Time Latitude Longitude Altitude Speed Heading
2026-04-27 00:25 43.56954 -116.22742 2840 ft 0 kts 357°
2026-04-27 00:51 43.56955 -116.22742 2840 ft 1 kts 350°
2026-04-27 00:51 43.56956 -116.22758 2840 ft 6 kts 266°
2026-04-27 00:51 43.56915 -116.22830 2839 ft 11 kts 207°
2026-04-27 00:51 43.56852 -116.22833 2840 ft 9 kts 126°
2026-04-27 00:52 43.56827 -116.22763 2842 ft 8 kts 112°
2026-04-27 00:52 43.56800 -116.22685 2843 ft 11 kts 115°
2026-04-27 00:52 43.56761 -116.22573 2844 ft 15 kts 115°
2026-04-27 00:52 43.56715 -116.22440 2848 ft 16 kts 115°
2026-04-27 00:53 43.56667 -116.22293 2847 ft 18 kts 114°
2026-04-27 00:53 43.56617 -116.22122 2849 ft 20 kts 110°
2026-04-27 00:53 43.56562 -116.21943 2852 ft 22 kts 124°
2026-04-27 00:53 43.56504 -116.21815 2854 ft 6 kts 114°
2026-04-27 00:54 43.56469 -116.21716 2853 ft 17 kts 114°
2026-04-27 00:54 43.56414 -116.21556 2855 ft 18 kts 114°
2026-04-27 00:54 43.56364 -116.21408 2863 ft 16 kts 116°
2026-04-27 00:54 43.56319 -116.21279 2866 ft 15 kts 115°
2026-04-27 00:55 43.56277 -116.21153 2868 ft 14 kts 114°
2026-04-27 00:55 43.56238 -116.21041 2870 ft 13 kts 116°
2026-04-27 00:55 43.56197 -116.20922 2869 ft 15 kts 115°
2026-04-27 00:55 43.56119 -116.20881 2869 ft 14 kts 206°
2026-04-27 00:56 43.56021 -116.20946 2866 ft 17 kts 203°
2026-04-27 00:56 43.55984 -116.20967 2864 ft 1 kts 207°
2026-04-27 00:56 43.55959 -116.20982 2862 ft 8 kts 201°
2026-04-27 00:56 43.55905 -116.21057 2859 ft 13 kts 284°
2026-04-27 00:57 43.56010 -116.21354 2858 ft 72 kts 295°
2026-04-27 00:57 43.56332 -116.22301 2864 ft 143 kts 297°
2026-04-27 00:57 43.56798 -116.23686 3465 ft 173 kts 296°
2026-04-27 00:57 43.57314 -116.25315 4405 ft 194 kts 296°
2026-04-27 00:58 43.57858 -116.27039 5688 ft 198 kts 296°
2026-04-27 00:58 43.58406 -116.28804 6974 ft 204 kts 295°
2026-04-27 00:58 43.58996 -116.30679 7852 ft 228 kts 295°
2026-04-27 00:58 43.59668 -116.32790 8673 ft 253 kts 295°
2026-04-27 00:59 43.60413 -116.35074 9700 ft 264 kts 295°
2026-04-27 00:59 43.61233 -116.37347 10916 ft 267 kts 306°
2026-04-27 00:59 43.62713 -116.38884 12032 ft 275 kts 335°
2026-04-27 00:59 43.64564 -116.39695 13100 ft 282 kts 340°
2026-04-27 01:00 43.66411 -116.40582 14339 ft 271 kts 334°
2026-04-27 01:00 43.68109 -116.41697 15330 ft 280 kts 330°
2026-04-27 01:00 43.69916 -116.43017 15630 ft 305 kts 330°
2026-04-27 01:00 43.71769 -116.44282 15651 ft 283 kts 332°
2026-04-27 01:01 43.73528 -116.45439 15659 ft 287 kts 332°
2026-04-27 01:01 43.75407 -116.46700 15684 ft 304 kts 332°
2026-04-27 01:01 43.77283 -116.47965 15698 ft 298 kts 331°
2026-04-27 01:01 43.79151 -116.49232 15760 ft 305 kts 332°
2026-04-27 01:02 43.81064 -116.50524 15980 ft 314 kts 332°
2026-04-27 01:02 43.83129 -116.51924 16378 ft 341 kts 332°
2026-04-27 01:02 43.85338 -116.53418 16961 ft 366 kts 332°
2026-04-27 01:02 43.87698 -116.55017 17569 ft 384 kts 332°
2026-04-27 01:03 43.90121 -116.56653 18556 ft 390 kts 332°
2026-04-27 01:03 43.92582 -116.58323 19360 ft 396 kts 332°
2026-04-27 01:03 43.95073 -116.60018 20133 ft 401 kts 332°
2026-04-27 01:03 43.97597 -116.61734 20868 ft 406 kts 332°
2026-04-27 01:04 44.00120 -116.63449 21586 ft 411 kts 332°
2026-04-27 01:04 44.02701 -116.65207 22306 ft 416 kts 332°
2026-04-27 01:04 44.05312 -116.66988 23026 ft 420 kts 332°
2026-04-27 01:04 44.07958 -116.68794 23684 ft 425 kts 332°
2026-04-27 01:05 44.10627 -116.70629 24299 ft 429 kts 330°
2026-04-27 01:05 44.13152 -116.72847 24878 ft 431 kts 323°
2026-04-27 01:05 44.15644 -116.75212 25482 ft 435 kts 324°
2026-04-27 01:05 44.18098 -116.77705 26045 ft 437 kts 318°
2026-04-27 01:06 44.20437 -116.80436 26626 ft 440 kts 319°
2026-04-27 01:06 44.22825 -116.83138 27193 ft 444 kts 319°
2026-04-27 01:06 44.25230 -116.85875 27745 ft 448 kts 318°
2026-04-27 01:06 44.27630 -116.88665 28298 ft 451 kts 318°
2026-04-27 01:07 44.30024 -116.91446 28821 ft 455 kts 318°
2026-04-27 01:07 44.32475 -116.94264 29356 ft 458 kts 319°
2026-04-27 01:07 44.34950 -116.97115 29880 ft 462 kts 319°
2026-04-27 01:07 44.37430 -116.99991 30314 ft 465 kts 318°
2026-04-27 01:08 44.39932 -117.02898 30730 ft 469 kts 319°
2026-04-27 01:08 44.42453 -117.05819 31133 ft 472 kts 319°
2026-04-27 01:08 44.44989 -117.08761 31552 ft 475 kts 319°
2026-04-27 01:08 44.47540 -117.11730 31968 ft 478 kts 319°
2026-04-27 01:09 44.50106 -117.14720 32355 ft 482 kts 319°
2026-04-27 01:09 44.52688 -117.17728 32732 ft 479 kts 319°
2026-04-27 01:09 44.55190 -117.20644 34020 ft 462 kts 319°
2026-04-27 01:09 44.57677 -117.23551 34229 ft 469 kts 319°
2026-04-27 01:10 44.60194 -117.26501 34568 ft 472 kts 319°
2026-04-27 01:10 44.62726 -117.29465 34888 ft 476 kts 319°
2026-04-27 01:10 44.65282 -117.32460 35201 ft 479 kts 319°
2026-04-27 01:10 44.67845 -117.35468 35433 ft 482 kts 319°
2026-04-27 01:11 44.70423 -117.38501 35574 ft 483 kts 319°
2026-04-27 01:11 44.72952 -117.41475 35805 ft 472 kts 319°
2026-04-27 01:11 44.75427 -117.44387 36634 ft 461 kts 319°
2026-04-27 01:11 44.77898 -117.47304 36844 ft 466 kts 319°
2026-04-27 01:12 44.80371 -117.50228 37807 ft 450 kts 319°
2026-04-27 01:12 44.82752 -117.53038 38483 ft 449 kts 319°
2026-04-27 01:12 44.85172 -117.55905 38616 ft 454 kts 319°
2026-04-27 01:12 44.87594 -117.58775 38876 ft 455 kts 319°
2026-04-27 01:13 44.90028 -117.61661 39097 ft 458 kts 319°
2026-04-27 01:13 44.92443 -117.64531 39314 ft 460 kts 319°
2026-04-27 01:13 44.94892 -117.67441 39528 ft 462 kts 319°
2026-04-27 01:13 44.97357 -117.70376 39731 ft 464 kts 319°
2026-04-27 01:14 44.99833 -117.73326 39951 ft 466 kts 319°
2026-04-27 01:14 45.02313 -117.76284 40143 ft 468 kts 319°
2026-04-27 01:14 45.04794 -117.79248 40565 ft 462 kts 319°
2026-04-27 01:14 45.07226 -117.82157 41083 ft 458 kts 319°
2026-04-27 01:15 45.09660 -117.85090 41183 ft 461 kts 318°
2026-04-27 01:15 45.12109 -117.88032 41364 ft 463 kts 319°
2026-04-27 01:15 45.14582 -117.90963 41534 ft 464 kts 319°
2026-04-27 01:15 45.16872 -117.94183 41706 ft 465 kts 310°
2026-04-27 01:16 45.18861 -117.97803 41858 ft 467 kts 307°
2026-04-27 01:16 45.20826 -118.01476 42019 ft 468 kts 307°
2026-04-27 01:16 45.22810 -118.05145 42175 ft 469 kts 307°
2026-04-27 01:16 45.24764 -118.08761 42328 ft 470 kts 307°
2026-04-27 01:17 45.26761 -118.12481 42476 ft 472 kts 307°
2026-04-27 01:17 45.28753 -118.16200 42594 ft 474 kts 307°
2026-04-27 01:17 45.30752 -118.19930 42756 ft 475 kts 307°
2026-04-27 01:17 45.32747 -118.23655 42892 ft 473 kts 307°
2026-04-27 01:18 45.34721 -118.27346 42898 ft 465 kts 307°
2026-04-27 01:18 45.38569 -118.34560 42906 ft 452 kts 307°
2026-04-27 01:19 45.42397 -118.41754 42928 ft 459 kts 307°
2026-04-27 01:19 45.46268 -118.49047 42922 ft 463 kts 307°
2026-04-27 01:20 45.50120 -118.56321 42907 ft 462 kts 307°
2026-04-27 01:20 45.53991 -118.63651 42893 ft 461 kts 307°
2026-04-27 01:21 45.57838 -118.70954 42886 ft 461 kts 307°
2026-04-27 01:21 45.61696 -118.78299 42881 ft 463 kts 307°
2026-04-27 01:22 45.65544 -118.85643 42880 ft 465 kts 307°
2026-04-27 01:22 45.69425 -118.93067 42886 ft 465 kts 307°
2026-04-27 01:23 45.73585 -119.00157 42883 ft 464 kts 311°
2026-04-27 01:23 45.77755 -119.07207 42866 ft 463 kts 310°
2026-04-27 01:24 45.81892 -119.14198 42865 ft 462 kts 311°
2026-04-27 01:24 45.86045 -119.21243 42859 ft 462 kts 310°
2026-04-27 01:25 45.90186 -119.28284 42860 ft 461 kts 310°
2026-04-27 01:25 45.94329 -119.35343 42862 ft 463 kts 310°
2026-04-27 01:26 45.98484 -119.42442 42862 ft 465 kts 310°
2026-04-27 01:26 46.02621 -119.49530 42864 ft 466 kts 310°
2026-04-27 01:27 46.06775 -119.56664 42862 ft 463 kts 310°
2026-04-27 01:27 46.10898 -119.63763 42859 ft 461 kts 310°
2026-04-27 01:28 46.15000 -119.70845 42853 ft 460 kts 310°
2026-04-27 01:28 46.19113 -119.77962 42846 ft 462 kts 310°
2026-04-27 01:29 46.23230 -119.85107 42848 ft 463 kts 310°
2026-04-27 01:29 46.27324 -119.92229 42852 ft 463 kts 310°
2026-04-27 01:30 46.31424 -119.99381 42846 ft 460 kts 310°
2026-04-27 01:30 46.35503 -120.06513 42834 ft 459 kts 310°
2026-04-27 01:30 46.37560 -120.10117 42301 ft 468 kts 310°
2026-04-27 01:31 46.39614 -120.13722 41693 ft 468 kts 310°
2026-04-27 01:31 46.41676 -120.17347 41080 ft 463 kts 310°
2026-04-27 01:31 46.43718 -120.20939 40471 ft 458 kts 311°
2026-04-27 01:31 46.45734 -120.24489 39870 ft 453 kts 311°
2026-04-27 01:32 46.47720 -120.27992 39279 ft 448 kts 311°
2026-04-27 01:32 46.49687 -120.31464 38694 ft 443 kts 311°
2026-04-27 01:32 46.51635 -120.34910 38053 ft 439 kts 311°
2026-04-27 01:32 46.53561 -120.38320 37472 ft 434 kts 312°
2026-04-27 01:33 46.55473 -120.41709 36904 ft 433 kts 313°
2026-04-27 01:33 46.57356 -120.45127 36333 ft 436 kts 310°
2026-04-27 01:33 46.59062 -120.48732 35768 ft 439 kts 309°
2026-04-27 01:33 46.60809 -120.52394 35183 ft 441 kts 310°
2026-04-27 01:34 46.62571 -120.56039 34604 ft 440 kts 310°
2026-04-27 01:34 46.64315 -120.59686 34024 ft 437 kts 311°
2026-04-27 01:34 46.65456 -120.62092 33610 ft 434 kts 311°
2026-04-27 01:34 46.67160 -120.65683 33030 ft 428 kts 311°
2026-04-27 01:35 46.68862 -120.69253 32460 ft 427 kts 311°
2026-04-27 01:35 46.70568 -120.72824 31898 ft 433 kts 311°
2026-04-27 01:35 46.72290 -120.76451 31324 ft 438 kts 311°
2026-04-27 01:35 46.74021 -120.80118 30752 ft 439 kts 311°
2026-04-27 01:36 46.75756 -120.83789 30174 ft 439 kts 311°
2026-04-27 01:36 46.77489 -120.87450 29556 ft 437 kts 311°
2026-04-27 01:36 46.79207 -120.91091 28981 ft 432 kts 311°
2026-04-27 01:36 46.80329 -120.93474 28605 ft 428 kts 311°
2026-04-27 01:37 46.80929 -120.94748 28400 ft 426 kts 311°
2026-04-27 01:37 46.82601 -120.98299 27853 ft 421 kts 311°
2026-04-27 01:37 46.84258 -121.01818 27296 ft 419 kts 310°
2026-04-27 01:37 46.85906 -121.05325 26746 ft 418 kts 310°
2026-04-27 01:38 46.87550 -121.08829 26197 ft 417 kts 310°
2026-04-27 01:38 46.89179 -121.12316 25653 ft 413 kts 310°
2026-04-27 01:38 46.90801 -121.15779 25111 ft 411 kts 309°
2026-04-27 01:38 46.92390 -121.19176 24577 ft 409 kts 309°
2026-04-27 01:39 46.93989 -121.22604 24047 ft 407 kts 308°
2026-04-27 01:39 46.95580 -121.26021 23517 ft 405 kts 308°
2026-04-27 01:39 46.97162 -121.29417 22938 ft 401 kts 308°
2026-04-27 01:39 46.98720 -121.32771 22408 ft 396 kts 308°
2026-04-27 01:40 47.00262 -121.36093 21891 ft 393 kts 308°
2026-04-27 01:40 47.01792 -121.39391 21385 ft 384 kts 308°
2026-04-27 01:40 47.03261 -121.42566 20884 ft 369 kts 308°
2026-04-27 01:40 47.04679 -121.45631 20408 ft 356 kts 308°
2026-04-27 01:41 47.06047 -121.48591 19954 ft 345 kts 308°
2026-04-27 01:41 47.07380 -121.51471 19499 ft 338 kts 307°
2026-04-27 01:41 47.08694 -121.54316 19057 ft 337 kts 307°
2026-04-27 01:41 47.10009 -121.57170 18610 ft 338 kts 307°
2026-04-27 01:42 47.11305 -121.59991 18241 ft 336 kts 307°
2026-04-27 01:42 47.12618 -121.62843 17790 ft 340 kts 307°
2026-04-27 01:42 47.13994 -121.65828 17330 ft 365 kts 306°
2026-04-27 01:42 47.15428 -121.68956 16840 ft 369 kts 306°
2026-04-27 01:43 47.16849 -121.72074 16356 ft 365 kts 306°
2026-04-27 01:43 47.18262 -121.75161 15866 ft 362 kts 306°
2026-04-27 01:43 47.19659 -121.78205 15395 ft 357 kts 305°
2026-04-27 01:43 47.21034 -121.81220 15013 ft 352 kts 305°
2026-04-27 01:44 47.22382 -121.84177 15001 ft 349 kts 305°
2026-04-27 01:44 47.23757 -121.87192 15005 ft 356 kts 305°
2026-04-27 01:44 47.25113 -121.90168 15005 ft 356 kts 305°
2026-04-27 01:44 47.26493 -121.93199 15009 ft 357 kts 305°
2026-04-27 01:45 47.27874 -121.96245 15002 ft 356 kts 305°
2026-04-27 01:45 47.29260 -121.99298 14656 ft 361 kts 305°
2026-04-27 01:45 47.30651 -122.02365 14114 ft 357 kts 304°
2026-04-27 01:45 47.32015 -122.05377 13566 ft 349 kts 304°
2026-04-27 01:46 47.33348 -122.08327 13018 ft 343 kts 304°
2026-04-27 01:46 47.34663 -122.11235 12500 ft 339 kts 304°
2026-04-27 01:46 47.36141 -122.13924 12003 ft 337 kts 321°
2026-04-27 01:46 47.38096 -122.15791 11584 ft 336 kts 328°
2026-04-27 01:47 47.40103 -122.17585 10999 ft 337 kts 328°
2026-04-27 01:47 47.41991 -122.19255 10425 ft 296 kts 329°
2026-04-27 01:47 47.43702 -122.20759 9845 ft 286 kts 329°
2026-04-27 01:47 47.45542 -122.21737 9216 ft 287 kts 349°
2026-04-27 01:48 47.47533 -122.21952 8603 ft 287 kts 356°
2026-04-27 01:48 47.49520 -122.22013 7998 ft 285 kts 358°
2026-04-27 01:48 47.51497 -122.22048 7409 ft 284 kts 358°
2026-04-27 01:48 47.53470 -122.22086 6820 ft 283 kts 358°
2026-04-27 01:49 47.55434 -122.22131 6262 ft 281 kts 358°
2026-04-27 01:49 47.57389 -122.22181 5669 ft 281 kts 358°
2026-04-27 01:49 47.59341 -122.22232 5081 ft 280 kts 358°
2026-04-27 01:49 47.61278 -122.22410 4493 ft 278 kts 347°
2026-04-27 01:50 47.63061 -122.23465 3999 ft 273 kts 332°
2026-04-27 01:50 47.64672 -122.24758 3984 ft 256 kts 330°
2026-04-27 01:50 47.66201 -122.26013 3973 ft 254 kts 330°
2026-04-27 01:50 47.67762 -122.27306 3975 ft 258 kts 330°
2026-04-27 01:51 47.69333 -122.28613 3977 ft 260 kts 330°
2026-04-27 01:51 47.70837 -122.30119 3846 ft 263 kts 315°
2026-04-27 01:51 47.71984 -122.32207 3712 ft 259 kts 306°
2026-04-27 01:51 47.73032 -122.34376 3598 ft 258 kts 305°
2026-04-27 01:52 47.74069 -122.36544 3473 ft 256 kts 305°
2026-04-27 01:52 47.75100 -122.38718 3349 ft 256 kts 303°
2026-04-27 01:52 47.75669 -122.41183 3199 ft 256 kts 273°
2026-04-27 01:52 47.75266 -122.43692 3053 ft 254 kts 242°
2026-04-27 01:53 47.74041 -122.45458 2981 ft 242 kts 208°
2026-04-27 01:53 47.72456 -122.46026 2984 ft 229 kts 184°
2026-04-27 01:53 47.70955 -122.45499 2973 ft 220 kts 154°
2026-04-27 01:53 47.69641 -122.44371 2981 ft 219 kts 150°
2026-04-27 01:54 47.68303 -122.43263 2972 ft 222 kts 152°
2026-04-27 01:54 47.66962 -122.42104 2907 ft 225 kts 150°
2026-04-27 01:54 47.65618 -122.40944 2613 ft 218 kts 152°
2026-04-27 01:54 47.64466 -122.39983 2379 ft 168 kts 151°
2026-04-27 01:55 47.63497 -122.39140 2142 ft 158 kts 152°
2026-04-27 01:55 47.62560 -122.38365 1929 ft 152 kts 151°
2026-04-27 01:55 47.61654 -122.37573 1730 ft 151 kts 151°
2026-04-27 01:55 47.60740 -122.36816 1528 ft 147 kts 152°
2026-04-27 01:56 47.59070 -122.35384 1132 ft 135 kts 152°
2026-04-27 01:56 47.58257 -122.34707 866 ft 137 kts 152°
2026-04-27 01:56 47.57424 -122.34014 738 ft 142 kts 150°
2026-04-27 01:57 47.56557 -122.33242 590 ft 144 kts 149°
2026-04-27 01:57 47.55686 -122.32517 377 ft 144 kts 149°
2026-04-27 01:57 47.54797 -122.31748 214 ft 153 kts 151°
2026-04-27 01:57 47.53895 -122.30990 68 ft 141 kts 142°
2026-04-27 01:58 47.53096 -122.30301 63 ft 135 kts 150°
2026-04-27 01:58 47.52235 -122.29539 350 ft 159 kts 148°
2026-04-27 01:58 47.51178 -122.28658 589 ft 177 kts 151°
2026-04-27 01:58 47.50023 -122.27679 1435 ft 206 kts 151°
2026-04-27 01:59 47.48585 -122.26418 1654 ft 278 kts 150°
2026-04-27 01:59 47.46934 -122.24952 1682 ft 278 kts 150°
2026-04-27 01:59 47.45240 -122.23439 2710 ft 289 kts 150°
2026-04-27 01:59 47.43646 -122.21514 3008 ft 297 kts 129°
2026-04-27 02:00 47.42829 -122.18821 3013 ft 281 kts 99°
2026-04-27 02:00 47.42989 -122.16052 3012 ft 266 kts 71°
2026-04-27 02:00 47.43810 -122.13620 3011 ft 267 kts 50°
2026-04-27 02:00 47.45290 -122.12031 3010 ft 265 kts 18°
2026-04-27 02:01 47.47082 -122.11800 2999 ft 260 kts 348°
2026-04-27 02:01 47.48743 -122.12773 3010 ft 256 kts 331°
2026-04-27 02:01 47.50302 -122.14022 3017 ft 258 kts 330°
2026-04-27 02:01 47.51869 -122.15307 3011 ft 257 kts 329°
2026-04-27 02:02 47.53427 -122.16605 3016 ft 257 kts 329°
2026-04-27 02:02 47.54982 -122.17911 3015 ft 258 kts 329°
2026-04-27 02:02 47.56549 -122.19232 3014 ft 259 kts 329°
2026-04-27 02:02 47.58113 -122.20553 3015 ft 258 kts 329°
2026-04-27 02:03 47.59674 -122.21870 3015 ft 257 kts 329°
2026-04-27 02:03 47.61230 -122.23189 3014 ft 257 kts 329°
2026-04-27 02:03 47.62761 -122.24490 3017 ft 257 kts 329°
2026-04-27 02:03 47.64309 -122.25811 3019 ft 257 kts 329°
2026-04-27 02:04 47.65636 -122.27552 2988 ft 257 kts 304°
2026-04-27 02:04 47.66366 -122.29954 2974 ft 258 kts 288°
2026-04-27 02:04 47.66854 -122.32533 2825 ft 260 kts 277°
2026-04-27 02:04 47.66699 -122.35172 2665 ft 257 kts 258°
2026-04-27 02:05 47.66220 -122.37709 2509 ft 255 kts 247°
2026-04-27 02:05 47.65110 -122.39721 2344 ft 255 kts 215°
2026-04-27 02:05 47.63465 -122.40522 2166 ft 248 kts 182°
2026-04-27 02:05 47.61879 -122.39904 2001 ft 224 kts 148°
2026-04-27 02:06 47.60916 -122.38318 1990 ft 201 kts 123°
2026-04-27 02:06 47.60259 -122.36595 2022 ft 186 kts 120°
2026-04-27 02:06 47.59369 -122.35478 1993 ft 159 kts 160°
2026-04-27 02:06 47.58396 -122.34793 1976 ft 150 kts 150°
2026-04-27 02:07 47.57491 -122.34009 1809 ft 155 kts 151°
2026-04-27 02:07 47.56584 -122.33229 1201 ft 142 kts 150°
2026-04-27 02:07 47.55717 -122.32528 623 ft 149 kts 149°
2026-04-27 02:07 47.54842 -122.31796 276 ft 139 kts 146°
2026-04-27 02:08 47.54022 -122.31095 76 ft 132 kts 150°
2026-04-27 02:08 47.53308 -122.30502 21 ft 93 kts 150°
2026-04-27 02:08 47.53028 -122.30241 24 ft 9 kts 142°
2026-04-27 02:08 47.52785 -122.30058 22 ft 48 kts 151°
2026-04-27 02:09 47.52686 -122.30023 19 ft 2 kts 231°
2026-04-27 02:09 47.52669 -122.30065 21 ft 26 kts 244°
2026-04-27 02:09 47.52654 -122.30170 21 ft 14 kts 249°
2026-04-27 02:09 47.52709 -122.30292 22 ft 17 kts 287°
2026-04-27 02:10 47.52568 -122.30307 23 ft 46 kts 153°
2026-04-27 02:10 47.52467 -122.30260 22 ft 0 kts 186°